Akron Canton, OH

8:04 PM EDT on September 15, 2019 (GMT -0400)
Akron-Canton Regional

Weather History for KCAK - August, 2019

Change the Weather History Date:

Sunday, August 18, 2019

  Actual Average Record
Temperature  
Mean Temperature 81 °F 70 °F  
Max Temperature 91 °F 80 °F 93 °F (1922)
Min Temperature 70 °F 61 °F 47 °F (1981)
Degree Days  
Heating Degree Days 0 0  
Month to date heating degree days 0 0  
Since 1 June heating degree days 25 55  
Since 1 July heating degree days 0 6  
Cooling Degree Days 16 6  
Month to date cooling degree days 178 117  
Year to date cooling degree days 794 516  
Since 1 June cooling degree days 710 474  
Growing Degree Days 31 (Base 50)    
Moisture  
Dew Point 69 °F    
Average Humidity 73    
Maximum Humidity 93    
Minimum Humidity 52    
Precipitation  
Precipitation 0.25 in 0.12 in 1.13 in (1988)
Month to date precipitation 0.90 2.10  
Year to date precipitation 32.92 25.74  
Snow  
Snow 0.00 in 0.00 in - ()
Month to date snowfall 0.0 0.0  
Since 1 June snowfall 0.0 0.0  
Since 1 July snowfall 0.0 0.0  
Snow Depth 0.00 in    
Sea Level Pressure  
Sea Level Pressure 29.94 in    
Wind  
Wind Speed 9 mph (SSW)    
Max Wind Speed 44 mph    
Max Gust Speed 55 mph    
Visibility 9 miles    
Events Rain , Thunderstorm    
T = Trace of Precipitation, MM = Missing Value Source: NWS Daily Summary

Daily Weather History Graph

Daily Weather History Graph

Search for Another Location

Airport or City:

Astronomy

Aug. 18, 2019 Rise Set
Actual Time 6:38 AM EDT 8:20 PM EDT
Civil Twilight 6:09 AM EDT 8:49 PM EDT
Nautical Twilight 5:33 AM EDT 9:24 PM EDT
Astronomical Twilight 4:55 AM EDT 10:02 PM EDT
Moon 10:13 PM EDT (8/18) 9:23 AM EDT (8/18)
Length of Visible Light 14h 40m
Length of Day
13h 41m
Waning Gibbous, 91% of the Moon is Illuminated
Aug 18
Waning Gibbous
Aug 23
Last Quarter
Aug 30
New
Sep 5
First Quarter
Sep 14
Full

Hourly Weather History & Observations

Time (EDT) Temp. Heat Index Dew Point Humidity Pressure Visibility Wind Dir Wind Speed Gust Speed Precip Events Conditions
12:51 AM 73.0 °F - 70.0 °F 90% 29.97 in 8.0 mi SSW 4.6 mph - N/A   Scattered Clouds
1:51 AM 73.0 °F - 70.0 °F 90% 29.96 in 7.0 mi South 4.6 mph - N/A   Mostly Cloudy
2:51 AM 73.0 °F - 70.0 °F 90% 29.95 in 8.0 mi South 4.6 mph - N/A   Mostly Cloudy
3:51 AM 73.0 °F - 70.0 °F 90% 29.95 in 8.0 mi South 4.6 mph - N/A   Mostly Cloudy
4:51 AM 72.0 °F - 69.1 °F 91% 29.95 in 8.0 mi South 4.6 mph - N/A   Mostly Cloudy
5:51 AM 72.0 °F - 68.0 °F 87% 29.94 in 10.0 mi South 5.8 mph - N/A   Mostly Cloudy
6:51 AM 72.0 °F - 69.1 °F 91% 29.97 in 10.0 mi West 5.8 mph - N/A   Overcast
7:51 AM 73.0 °F - 69.1 °F 87% 29.99 in 10.0 mi WSW 3.5 mph - N/A   Mostly Cloudy
8:51 AM 75.0 °F - 69.1 °F 82% 29.97 in 10.0 mi SW 3.5 mph - N/A   Mostly Cloudy
9:51 AM 79.0 °F - 69.1 °F 72% 29.97 in 10.0 mi SSW 5.8 mph - N/A   Scattered Clouds
10:51 AM 82.0 °F 85.5 °F 69.1 °F 65% 29.98 in 10.0 mi South 8.1 mph - N/A   Partly Cloudy
11:51 AM 84.9 °F 88.8 °F 69.1 °F 59% 29.99 in 10.0 mi SW 9.2 mph 18.4 mph N/A   Partly Cloudy
12:51 PM 87.1 °F 92.0 °F 70.0 °F 57% 29.97 in 10.0 mi WSW 11.5 mph - N/A   Partly Cloudy
1:51 PM 89.1 °F 94.1 °F 70.0 °F 53% 29.96 in 10.0 mi SSW 15.0 mph - N/A   Scattered Clouds
2:51 PM 90.0 °F 95.4 °F 70.0 °F 52% 29.95 in 10.0 mi SSW 15.0 mph 23.0 mph N/A   Scattered Clouds
3:51 PM 90.0 °F 95.4 °F 70.0 °F 52% 29.93 in 10.0 mi SW 13.8 mph - N/A   Scattered Clouds
4:51 PM 89.1 °F 93.7 °F 69.1 °F 52% 29.92 in 10.0 mi SSW 15.0 mph - N/A   Scattered Clouds
5:40 PM 87.1 °F 91.3 °F 69.1 °F 55% 29.94 in 10.0 mi SW 15.0 mph - N/A Thunderstorm Thunderstorm
5:51 PM 87.1 °F 91.3 °F 69.1 °F 55% 29.91 in 10.0 mi SW 12.7 mph - N/A Thunderstorm Thunderstorm
6:09 PM 80.1 °F 82.9 °F 69.1 °F 69% 29.98 in 1.8 mi West 27.6 mph 40.3 mph 0.00 in Rain , Thunderstorm Light Thunderstorms and Rain
6:31 PM 71.1 °F - 62.1 °F 73% 29.96 in 3.0 mi SSE 11.5 mph - 0.22 in Rain , Thunderstorm Light Thunderstorms and Rain
6:51 PM 73.0 °F - 64.0 °F 73% 29.91 in 10.0 mi WSW 3.5 mph - 0.22 in Thunderstorm Thunderstorm
7:22 PM 73.9 °F - 68.0 °F 82% 29.91 in 10.0 mi SSE 6.9 mph - N/A   Mostly Cloudy
7:51 PM 75.0 °F - 68.0 °F 79% 29.89 in 10.0 mi ESE 8.1 mph - N/A   Mostly Cloudy
8:51 PM 75.0 °F - 68.0 °F 79% 29.89 in 10.0 mi SSE 9.2 mph - N/A   Scattered Clouds
9:51 PM 78.1 °F - 72.0 °F 81% 29.89 in 10.0 mi South 10.4 mph - N/A   Scattered Clouds
10:51 PM 79.0 °F - 72.0 °F 79% 29.92 in 10.0 mi South 8.1 mph - N/A   Overcast
11:51 PM 79.0 °F - 72.0 °F 79% 29.91 in 10.0 mi SSW 10.4 mph - N/A   Overcast